| time (UTC) | temp C | wind direction | speed KPH | gust KPH | rain 1hr cm | rain 24hr cm | rain mn cm | humidity % | barometer mb |
| 20260507070010 | 10 | 140 | 3.2 | 9.7 | 0.00 | 0.00 | 0.00 | 78 | 1017.3 |
| 20260507064505 | 10 | 99 | 3.2 | 4.8 | 0.00 | 0.00 | 0.00 | 78 | 1017.3 |
| 20260507064013 | 10 | 136 | 3.2 | 4.8 | 0.00 | 0.00 | 0.00 | 79 | 1017.3 |
| 20260507063505 | 10 | 123 | 4.8 | 4.8 | 0.00 | 0.00 | 0.00 | 80 | 1017.2 |
| 20260507062505 | 9 | 107 | 3.2 | 9.7 | 0.00 | 0.00 | 0.00 | 82 | 1017.1 |
| 20260507062013 | 9 | 94 | 3.2 | 9.7 | 0.00 | 0.00 | 0.00 | 82 | 1017.1 |
| 20260507061505 | 8 | 110 | 4.8 | 9.7 | 0.00 | 0.00 | 0.00 | 82 | 1017.1 |
| 20260507061012 | 8 | 96 | 4.8 | 4.8 | 0.00 | 0.00 | 0.00 | 83 | 1017.0 |
| 20260507060506 | 8 | 92 | 3.2 | 4.8 | 0.00 | 0.00 | 0.00 | 83 | 1017.0 |
| 20260507060006 | 8 | 100 | 4.8 | 11.3 | 0.00 | 0.00 | 0.00 | 83 | 1017.0 |
| 20260507055505 | 8 | 94 | 3.2 | 9.7 | 0.00 | 0.00 | 0.00 | 84 | 1017.0 |
| 20260507054505 | 8 | 89 | 3.2 | 4.8 | 0.00 | 0.00 | 0.00 | 84 | 1017.0 |
| 20260507054013 | 8 | 107 | 0.0 | 4.8 | 0.00 | 0.00 | 0.00 | 84 | 1016.9 |
| 20260507053506 | 8 | 94 | 1.6 | 4.8 | 0.00 | 0.00 | 0.00 | 84 | 1016.9 |
| 20260507053012 | 8 | 101 | 1.6 | 4.8 | 0.00 | 0.00 | 0.00 | 84 | 1016.9 |
| 20260507051505 | 8 | 105 | 1.6 | 4.8 | 0.00 | 0.00 | 0.00 | 84 | 1016.8 |
| 20260507051012 | 8 | 85 | 3.2 | 4.8 | 0.00 | 0.00 | 0.00 | 84 | 1016.7 |
| 20260507050506 | 8 | 114 | 3.2 | 4.8 | 0.00 | 0.00 | 0.00 | 84 | 1016.7 |
| 20260507050006 | 8 | 102 | 3.2 | 4.8 | 0.00 | 0.00 | 0.00 | 84 | 1016.7 |
| 20260507045505 | 7 | 96 | 4.8 | 9.7 | 0.00 | 0.00 | 0.00 | 85 | 1016.7 |
| 20260507045012 | 7 | 101 | 3.2 | 9.7 | 0.00 | 0.00 | 0.00 | 85 | 1016.6 |
| 20260507044506 | 7 | 110 | 3.2 | 4.8 | 0.00 | 0.00 | 0.00 | 85 | 1016.6 |
| 20260507044012 | 7 | 138 | 3.2 | 4.8 | 0.00 | 0.00 | 0.00 | 86 | 1016.6 |
| 20260507043505 | 7 | 94 | 3.2 | 9.7 | 0.00 | 0.00 | 0.00 | 86 | 1016.6 |
| 20260507043012 | 7 | 130 | 1.6 | 4.8 | 0.00 | 0.00 | 0.00 | 87 | 1016.6 |
| 20260507042505 | 7 | 108 | 3.2 | 9.7 | 0.00 | 0.00 | 0.00 | 87 | 1016.6 |
| 20260507042012 | 7 | 96 | 3.2 | 4.8 | 0.00 | 0.00 | 0.00 | 87 | 1016.6 |
| 20260507041505 | 7 | 94 | 0.0 | 4.8 | 0.00 | 0.00 | 0.00 | 87 | 1016.7 |
| 20260507041013 | 7 | 101 | 0.0 | 3.2 | 0.00 | 0.00 | 0.00 | 87 | 1016.6 |
| 20260507040505 | 7 | 101 | 1.6 | 1.6 | 0.00 | 0.00 | 0.00 | 87 | 1016.7 |
| 20260507040005 | 7 | 101 | 0.0 | 1.6 | 0.00 | 0.00 | 0.00 | 87 | 1016.7 |
| 20260507035505 | 7 | 101 | 0.0 | 3.2 | 0.00 | 0.00 | 0.00 | 87 | 1016.6 |
| 20260507035012 | 7 | 101 | 1.6 | 4.8 | 0.00 | 0.00 | 0.00 | 87 | 1016.6 |
| 20260507034505 | 7 | 101 | 0.0 | 4.8 | 0.00 | 0.00 | 0.00 | 86 | 1016.6 |
| 20260507034012 | 7 | 93 | 1.6 | 3.2 | 0.00 | 0.00 | 0.00 | 86 | 1016.5 |
| 20260507033505 | 7 | 103 | 1.6 | 4.8 | 0.00 | 0.00 | 0.00 | 86 | 1016.5 |
| 20260507033012 | 7 | 55 | 0.0 | 1.6 | 0.00 | 0.00 | 0.00 | 86 | 1016.5 |
| 20260507032505 | 7 | 55 | 0.0 | 1.6 | 0.00 | 0.00 | 0.00 | 86 | 1016.5 |
| 20260507032012 | 7 | 55 | 0.0 | 3.2 | 0.00 | 0.00 | 0.00 | 86 | 1016.5 |
| 20260507031505 | 7 | 55 | 0.0 | 1.6 | 0.00 | 0.00 | 0.00 | 86 | 1016.5 |
| 20260507031012 | 7 | 55 | 0.0 | 1.6 | 0.00 | 0.00 | 0.00 | 86 | 1016.5 |
| 20260507030505 | 7 | 55 | 0.0 | 4.8 | 0.00 | 0.00 | 0.00 | 85 | 1016.5 |
| 20260507030005 | 7 | 55 | 1.6 | 3.2 | 0.00 | 0.00 | 0.00 | 85 | 1016.6 |
| 20260507025012 | 8 | 55 | 0.0 | 0.0 | 0.00 | 0.00 | 0.00 | 85 | 1016.6 |
| 20260507024012 | 8 | 55 | 0.0 | 1.6 | 0.00 | 0.00 | 0.00 | 85 | 1016.5 |
| 20260507023505 | 8 | 55 | 1.6 | 3.2 | 0.00 | 0.00 | 0.00 | 85 | 1016.5 |
| 20260507023013 | 8 | 55 | 0.0 | 1.6 | 0.00 | 0.00 | 0.00 | 85 | 1016.5 |
| 20260507022505 | 8 | 55 | 1.6 | 3.2 | 0.00 | 0.00 | 0.00 | 85 | 1016.5 |
| 20260507022013 | 8 | 55 | 0.0 | 3.2 | 0.00 | 0.00 | 0.00 | 85 | 1016.5 |
| 20260507021505 | 8 | 55 | 1.6 | 4.8 | 0.00 | 0.00 | 0.00 | 85 | 1016.5 |
| 20260507021012 | 8 | 55 | 0.0 | 3.2 | 0.00 | 0.00 | 0.00 | 85 | 1016.5 |
| 20260507020505 | 8 | 55 | 0.0 | 1.6 | 0.00 | 0.00 | 0.00 | 85 | 1016.4 |
| 20260507020005 | 8 | 55 | 0.0 | 1.6 | 0.00 | 0.00 | 0.00 | 85 | 1016.3 |
| 20260507015505 | 8 | 55 | 0.0 | 3.2 | 0.00 | 0.00 | 0.00 | 85 | 1016.3 |
| 20260507015012 | 8 | 51 | 0.0 | 3.2 | 0.00 | 0.00 | 0.00 | 86 | 1016.3 |
| 20260507014505 | 8 | 78 | 0.0 | 4.8 | 0.00 | 0.00 | 0.00 | 85 | 1016.4 |
| 20260507014012 | 8 | 60 | 1.6 | 4.8 | 0.00 | 0.00 | 0.00 | 85 | 1016.4 |
| 20260507013505 | 8 | 74 | 3.2 | 4.8 | 0.00 | 0.00 | 0.00 | 85 | 1016.4 |
| 20260507013012 | 8 | 36 | 3.2 | 4.8 | 0.00 | 0.00 | 0.00 | 85 | 1016.3 |
| 20260507012505 | 8 | 26 | 3.2 | 4.8 | 0.00 | 0.00 | 0.00 | 85 | 1016.3 |
| 20260507012012 | 8 | 23 | 3.2 | 8.0 | 0.00 | 0.00 | 0.00 | 85 | 1016.4 |
| 20260507011505 | 8 | 13 | 1.6 | 4.8 | 0.00 | 0.00 | 0.00 | 85 | 1016.3 |
| 20260507011012 | 8 | 17 | 0.0 | 4.8 | 0.00 | 0.00 | 0.00 | 85 | 1016.3 |
| 20260507010505 | 8 | 40 | 0.0 | 3.2 | 0.00 | 0.00 | 0.00 | 85 | 1016.3 |
| 20260507010005 | 8 | 40 | 0.0 | 3.2 | 0.00 | 0.00 | 0.00 | 85 | 1016.3 |
| 20260507005505 | 8 | 40 | 1.6 | 1.6 | 0.00 | 0.00 | 0.00 | 85 | 1016.3 |
| 20260507005012 | 8 | 40 | 1.6 | 4.8 | 0.00 | 0.00 | 0.00 | 85 | 1016.3 |
| 20260507004504 | 8 | 32 | 1.6 | 3.2 | 0.00 | 0.00 | 0.00 | 84 | 1016.3 |
| 20260507004012 | 8 | 20 | 3.2 | 4.8 | 0.00 | 0.00 | 0.00 | 84 | 1016.3 |
| 20260507003505 | 8 | 0 | 0.0 | 4.8 | 0.00 | 0.00 | 0.00 | 84 | 1016.5 |
| 20260507003012 | 8 | 50 | 1.6 | 3.2 | 0.00 | 0.00 | 0.00 | 84 | 1016.3 |
| 20260507002505 | 8 | 50 | 0.0 | 3.2 | 0.00 | 0.00 | 0.00 | 84 | 1016.4 |
| 20260507002012 | 8 | 49 | 1.6 | 4.8 | 0.00 | 0.00 | 0.00 | 84 | 1016.4 |
| 20260507001012 | 8 | 47 | 1.6 | 32.2 | 0.00 | 0.00 | 0.00 | 84 | 1016.4 |
| 20260507000505 | 8 | 47 | 1.6 | 4.8 | 0.00 | 0.00 | 0.00 | 83 | 1016.4 |
| 20260507000005 | 8 | 47 | 1.6 | 4.8 | 0.00 | 0.00 | 0.00 | 83 | 1016.4 |
| 20260506235505 | 8 | 45 | 3.2 | 4.8 | 0.00 | 0.00 | 0.00 | 83 | 1016.4 |
| 20260506234012 | 8 | 97 | 1.6 | 4.8 | 0.00 | 0.00 | 0.00 | 83 | 1016.3 |
| 20260506233505 | 8 | 63 | 1.6 | 4.8 | 0.00 | 0.00 | 0.00 | 83 | 1016.3 |
| 20260506232505 | 8 | 59 | 1.6 | 4.8 | 0.00 | 0.00 | 0.00 | 82 | 1016.3 |
| 20260506232012 | 8 | 67 | 3.2 | 4.8 | 0.00 | 0.00 | 0.00 | 82 | 1016.4 |
| 20260506230505 | 9 | 92 | 1.6 | 4.8 | 0.00 | 0.00 | 0.00 | 81 | 1016.4 |
| 20260506230005 | 9 | 42 | 1.6 | 4.8 | 0.00 | 0.00 | 0.00 | 81 | 1016.4 |
| 20260506225505 | 9 | 48 | 0.0 | 4.8 | 0.00 | 0.00 | 0.00 | 81 | 1016.3 |
| 20260506225012 | 9 | 52 | 4.8 | 8.0 | 0.00 | 0.00 | 0.00 | 81 | 1016.3 |
| 20260506224505 | 9 | 72 | 3.2 | 4.8 | 0.00 | 0.00 | 0.00 | 81 | 1016.3 |
| 20260506224012 | 9 | 54 | 1.6 | 4.8 | 0.00 | 0.00 | 0.00 | 81 | 1016.3 |
| 20260506223505 | 9 | 50 | 0.0 | 4.8 | 0.00 | 0.00 | 0.00 | 80 | 1016.2 |
| 20260506223012 | 9 | 69 | 3.2 | 4.8 | 0.00 | 0.00 | 0.00 | 80 | 1016.1 |
| 20260506222505 | 9 | 37 | 1.6 | 8.0 | 0.00 | 0.00 | 0.00 | 80 | 1016.1 |
| 20260506222012 | 9 | 55 | 3.2 | 8.0 | 0.00 | 0.00 | 0.00 | 80 | 1016.1 |
| 20260506221505 | 9 | 38 | 1.6 | 8.0 | 0.00 | 0.00 | 0.00 | 80 | 1016.1 |
| 20260506221012 | 9 | 58 | 4.8 | 9.7 | 0.00 | 0.00 | 0.00 | 79 | 1016.1 |
| 20260506220505 | 9 | 63 | 1.6 | 9.7 | 0.00 | 0.00 | 0.00 | 79 | 1016.1 |
| 20260506220005 | 9 | 53 | 4.8 | 12.9 | 0.00 | 0.00 | 0.00 | 79 | 1016.1 |
| 20260506215505 | 9 | 54 | 4.8 | 12.9 | 0.00 | 0.00 | 0.00 | 79 | 1016.1 |
| 20260506215012 | 9 | 57 | 3.2 | 19.3 | 0.00 | 0.00 | 0.00 | 78 | 1016.0 |
| 20260506214505 | 9 | 59 | 4.8 | 12.9 | 0.00 | 0.00 | 0.00 | 78 | 1016.0 |
| 20260506213012 | 10 | 25 | 4.8 | 9.7 | 0.00 | 0.00 | 0.00 | 77 | 1016.0 |
| 20260506212504 | 10 | 42 | 3.2 | 9.7 | 0.00 | 0.00 | 0.00 | 77 | 1016.0 |
| 20260506212012 | 10 | 45 | 3.2 | 16.1 | 0.00 | 0.00 | 0.00 | 76 | 1016.0 |
| 20260506211012 | 10 | 45 | 8.0 | 16.1 | 0.00 | 0.00 | 0.00 | 75 | 1016.0 |
| 20260506210505 | 10 | 29 | 3.2 | 4.8 | 0.00 | 0.00 | 0.00 | 75 | 1015.9 |
| 20260506210005 | 10 | 55 | 4.8 | 16.1 | 0.00 | 0.00 | 0.00 | 74 | 1015.9 |
| 20260506205504 | 10 | 36 | 3.2 | 16.1 | 0.00 | 0.00 | 0.00 | 74 | 1015.9 |
| 20260506205012 | 10 | 43 | 3.2 | 9.7 | 0.00 | 0.00 | 0.00 | 74 | 1015.9 |
| 20260506204504 | 10 | 43 | 8.0 | 14.5 | 0.00 | 0.00 | 0.00 | 73 | 1015.9 |
| 20260506204012 | 10 | 33 | 4.8 | 19.3 | 0.00 | 0.00 | 0.00 | 73 | 1015.9 |
| 20260506203505 | 10 | 59 | 8.0 | 19.3 | 0.00 | 0.00 | 0.00 | 72 | 1015.9 |
| 20260506202505 | 10 | 42 | 8.0 | 19.3 | 0.00 | 0.00 | 0.00 | 70 | 1015.9 |
| 20260506202011 | 10 | 41 | 6.4 | 16.1 | 0.00 | 0.00 | 0.00 | 70 | 1015.9 |
| 20260506201012 | 11 | 41 | 4.8 | 9.7 | 0.00 | 0.00 | 0.00 | 68 | 1015.7 |
| 20260506200505 | 11 | 41 | 6.4 | 14.5 | 0.00 | 0.00 | 0.00 | 68 | 1015.7 |
| 20260506200004 | 11 | 37 | 4.8 | 16.1 | 0.00 | 0.00 | 0.00 | 69 | 1015.5 |
| 20260506195504 | 11 | 37 | 3.2 | 11.3 | 0.00 | 0.00 | 0.00 | 68 | 1015.5 |
| 20260506195012 | 11 | 35 | 3.2 | 8.0 | 0.00 | 0.00 | 0.00 | 68 | 1015.5 |
| 20260506194504 | 11 | 36 | 3.2 | 12.9 | 0.00 | 0.00 | 0.00 | 68 | 1015.4 |
| 20260506194012 | 11 | 49 | 3.2 | 4.8 | 0.00 | 0.00 | 0.00 | 67 | 1015.3 |
| 20260506193504 | 11 | 49 | 3.2 | 8.0 | 0.00 | 0.00 | 0.00 | 67 | 1015.3 |
| 20260506193011 | 11 | 69 | 3.2 | 8.0 | 0.00 | 0.00 | 0.00 | 67 | 1015.2 |
| 20260506192504 | 11 | 57 | 4.8 | 12.9 | 0.00 | 0.00 | 0.00 | 66 | 1015.2 |
| 20260506192011 | 11 | 38 | 4.8 | 14.5 | 0.00 | 0.00 | 0.00 | 65 | 1015.2 |
| 20260506191504 | 11 | 62 | 3.2 | 11.3 | 0.00 | 0.00 | 0.00 | 64 | 1015.2 |
| 20260506191012 | 11 | 55 | 4.8 | 19.3 | 0.00 | 0.00 | 0.00 | 64 | 1015.1 |
| 20260506190005 | 11 | 44 | 3.2 | 8.0 | 0.00 | 0.00 | 0.00 | 63 | 1015.1 |
| 20260506185504 | 11 | 60 | 6.4 | 14.5 | 0.00 | 0.00 | 0.00 | 63 | 1015.0 |
| 20260506185012 | 11 | 52 | 4.8 | 11.3 | 0.00 | 0.00 | 0.00 | 62 | 1014.9 |
| 20260506184505 | 11 | 61 | 3.2 | 8.0 | 0.00 | 0.00 | 0.00 | 62 | 1014.9 |
| 20260506184011 | 11 | 51 | 6.4 | 14.5 | 0.00 | 0.00 | 0.00 | 62 | 1015.0 |
| 20260506183505 | 12 | 36 | 8.0 | 19.3 | 0.00 | 0.00 | 0.00 | 62 | 1014.9 |
| 20260506183012 | 12 | 50 | 4.8 | 14.5 | 0.00 | 0.00 | 0.00 | 62 | 1014.9 |
| 20260506182504 | 12 | 50 | 4.8 | 14.5 | 0.00 | 0.00 | 0.00 | 62 | 1014.8 |
| 20260506182012 | 12 | 52 | 3.2 | 12.9 | 0.00 | 0.00 | 0.00 | 62 | 1014.7 |
| 20260506181504 | 12 | 50 | 8.0 | 19.3 | 0.00 | 0.00 | 0.00 | 61 | 1014.7 |
| 20260506180505 | 12 | 41 | 6.4 | 19.3 | 0.00 | 0.00 | 0.00 | 62 | 1014.6 |
| 20260506180005 | 12 | 43 | 3.2 | 14.5 | 0.00 | 0.00 | 0.00 | 61 | 1014.6 |
| 20260506175504 | 12 | 29 | 6.4 | 16.1 | 0.00 | 0.00 | 0.00 | 61 | 1014.4 |
| 20260506175011 | 12 | 39 | 9.7 | 19.3 | 0.00 | 0.00 | 0.00 | 60 | 1014.3 |
| 20260506174011 | 12 | 71 | 6.4 | 16.1 | 0.00 | 0.00 | 0.00 | 57 | 1014.2 |
| 20260506173505 | 12 | 53 | 4.8 | 9.7 | 0.00 | 0.00 | 0.00 | 57 | 1014.1 |
| 20260506173012 | 12 | 30 | 6.4 | 14.5 | 0.00 | 0.00 | 0.00 | 56 | 1014.1 |
| 20260506172011 | 12 | 39 | 8.0 | 19.3 | 0.00 | 0.00 | 0.00 | 56 | 1014.1 |
| 20260506171504 | 12 | 59 | 6.4 | 14.5 | 0.00 | 0.00 | 0.00 | 56 | 1014.2 |
| 20260506171011 | 12 | 42 | 6.4 | 20.9 | 0.00 | 0.00 | 0.00 | 56 | 1014.1 |
| 20260506170504 | 13 | 57 | 6.4 | 14.5 | 0.00 | 0.00 | 0.00 | 55 | 1014.1 |
| 20260506170004 | 13 | 48 | 3.2 | 12.9 | 0.00 | 0.00 | 0.00 | 55 | 1014.1 |
| 20260506165504 | 13 | 76 | 3.2 | 9.7 | 0.00 | 0.00 | 0.00 | 55 | 1014.1 |
| 20260506164504 | 13 | 79 | 3.2 | 12.9 | 0.00 | 0.00 | 0.00 | 54 | 1014.1 |
| 20260506164011 | 13 | 65 | 4.8 | 11.3 | 0.00 | 0.00 | 0.00 | 54 | 1014.0 |
| 20260506163504 | 13 | 69 | 3.2 | 9.7 | 0.00 | 0.00 | 0.00 | 56 | 1014.2 |
| 20260506163011 | 13 | 40 | 4.8 | 11.3 | 0.00 | 0.00 | 0.00 | 55 | 1014.2 |
| 20260506162504 | 13 | 41 | 8.0 | 19.3 | 0.00 | 0.00 | 0.00 | 54 | 1014.1 |
| 20260506162011 | 13 | 85 | 4.8 | 12.9 | 0.00 | 0.00 | 0.00 | 53 | 1014.1 |
| 20260506161504 | 14 | 67 | 8.0 | 14.5 | 0.00 | 0.00 | 0.00 | 53 | 1014.1 |
| 20260506161011 | 13 | 43 | 4.8 | 19.3 | 0.00 | 0.00 | 0.00 | 55 | 1014.1 |
| 20260506160004 | 13 | 43 | 4.8 | 14.5 | 0.00 | 0.00 | 0.00 | 57 | 1014.1 |
| 20260506155504 | 13 | 58 | 8.0 | 19.3 | 0.00 | 0.00 | 0.00 | 57 | 1014.2 |
| 20260506155011 | 13 | 56 | 3.2 | 9.7 | 0.00 | 0.00 | 0.00 | 58 | 1014.1 |
| 20260506154507 | 13 | 36 | 4.8 | 14.5 | 0.00 | 0.00 | 0.00 | 58 | 1014.2 |
| 20260506154011 | 13 | 33 | 4.8 | 14.5 | 0.00 | 0.00 | 0.00 | 58 | 1014.2 |
| 20260506153504 | 13 | 46 | 8.0 | 16.1 | 0.00 | 0.00 | 0.00 | 59 | 1014.2 |
| 20260506153011 | 13 | 57 | 4.8 | 11.3 | 0.00 | 0.00 | 0.00 | 60 | 1014.2 |
| 20260506152504 | 13 | 39 | 3.2 | 11.3 | 0.00 | 0.00 | 0.00 | 58 | 1014.2 |
| 20260506152011 | 13 | 37 | 4.8 | 14.5 | 0.00 | 0.00 | 0.00 | 59 | 1014.2 |
| 20260506151504 | 13 | 36 | 4.8 | 14.5 | 0.00 | 0.00 | 0.00 | 59 | 1014.2 |
| 20260506151011 | 13 | 60 | 3.2 | 14.5 | 0.00 | 0.00 | 0.00 | 59 | 1014.2 |
| 20260506150505 | 13 | 46 | 3.2 | 12.9 | 0.00 | 0.00 | 0.00 | 60 | 1014.2 |
| 20260506150005 | 13 | 20 | 4.8 | 8.0 | 0.00 | 0.00 | 0.00 | 62 | 1014.2 |
| 20260506145504 | 13 | 56 | 3.2 | 11.3 | 0.00 | 0.00 | 0.00 | 61 | 1014.2 |
| 20260506145011 | 13 | 26 | 4.8 | 11.3 | 0.00 | 0.00 | 0.00 | 61 | 1014.2 |
| 20260506144504 | 13 | 56 | 1.6 | 8.0 | 0.00 | 0.00 | 0.00 | 62 | 1014.3 |
| 20260506144011 | 12 | 26 | 4.8 | 11.3 | 0.00 | 0.00 | 0.00 | 62 | 1014.3 |
| 20260506143011 | 12 | 44 | 8.0 | 20.9 | 0.00 | 0.00 | 0.00 | 62 | 1014.3 |
| 20260506142504 | 12 | 55 | 3.2 | 14.5 | 0.00 | 0.00 | 0.00 | 64 | 1014.4 |
| 20260506142011 | 12 | 41 | 8.0 | 14.5 | 0.00 | 0.00 | 0.00 | 63 | 1014.3 |
| 20260506141504 | 12 | 47 | 6.4 | 19.3 | 0.00 | 0.00 | 0.00 | 63 | 1014.3 |
| 20260506141012 | 12 | 27 | 9.7 | 19.3 | 0.00 | 0.00 | 0.00 | 63 | 1014.4 |
| 20260506140504 | 12 | 33 | 8.0 | 19.3 | 0.00 | 0.00 | 0.00 | 63 | 1014.4 |
| 20260506140005 | 12 | 40 | 9.7 | 19.3 | 0.00 | 0.00 | 0.00 | 63 | 1014.4 |
| 20260506135504 | 12 | 66 | 8.0 | 19.3 | 0.00 | 0.00 | 0.00 | 63 | 1014.4 |
| 20260506135011 | 12 | 56 | 4.8 | 12.9 | 0.00 | 0.00 | 0.00 | 63 | 1014.4 |
| 20260506134506 | 12 | 44 | 4.8 | 16.1 | 0.00 | 0.00 | 0.00 | 63 | 1014.5 |
| 20260506134012 | 13 | 55 | 4.8 | 20.9 | 0.00 | 0.00 | 0.00 | 63 | 1014.4 |
| 20260506133506 | 12 | 37 | 8.0 | 19.3 | 0.00 | 0.00 | 0.00 | 63 | 1014.5 |
| 20260506133013 | 13 | 56 | 4.8 | 11.3 | 0.00 | 0.00 | 0.00 | 62 | 1014.5 |
| 20260506132506 | 13 | 69 | 8.0 | 19.3 | 0.00 | 0.00 | 0.00 | 61 | 1014.5 |
| 20260506132013 | 13 | 74 | 6.4 | 20.9 | 0.00 | 0.00 | 0.00 | 61 | 1014.5 |
| 20260506131505 | 13 | 60 | 4.8 | 12.9 | 0.00 | 0.00 | 0.00 | 62 | 1014.5 |
| 20260506131013 | 13 | 31 | 6.4 | 14.5 | 0.00 | 0.00 | 0.00 | 61 | 1014.5 |
| 20260506130506 | 13 | 31 | 8.0 | 16.1 | 0.00 | 0.00 | 0.00 | 61 | 1014.5 |
| 20260506130006 | 13 | 58 | 8.0 | 20.9 | 0.00 | 0.00 | 0.00 | 61 | 1014.5 |
| 20260506125506 | 13 | 69 | 3.2 | 12.9 | 0.00 | 0.00 | 0.00 | 62 | 1014.5 |
| 20260506125013 | 13 | 54 | 8.0 | 19.3 | 0.00 | 0.00 | 0.00 | 61 | 1014.5 |
| 20260506124013 | 13 | 59 | 11.3 | 20.9 | 0.00 | 0.00 | 0.00 | 62 | 1014.4 |
| 20260506123510 | 13 | 38 | 9.7 | 19.3 | 0.00 | 0.00 | 0.00 | 62 | 1014.4 |
| 20260506123012 | 12 | 63 | 8.0 | 19.3 | 0.00 | 0.00 | 0.00 | 61 | 1014.4 |
| 20260506122505 | 13 | 42 | 14.5 | 22.5 | 0.00 | 0.00 | 0.00 | 61 | 1014.4 |
| 20260506122012 | 13 | 47 | 11.3 | 27.4 | 0.00 | 0.00 | 0.00 | 60 | 1014.3 |
| 20260506121506 | 13 | 48 | 9.7 | 29.0 | 0.00 | 0.00 | 0.00 | 61 | 1014.3 |
| 20260506121013 | 13 | 34 | 11.3 | 19.3 | 0.00 | 0.00 | 0.00 | 59 | 1014.3 |
| 20260506120506 | 13 | 44 | 11.3 | 19.3 | 0.00 | 0.00 | 0.00 | 60 | 1014.3 |
| 20260506115506 | 13 | 40 | 8.0 | 19.3 | 0.00 | 0.00 | 0.00 | 64 | 1014.5 |
| 20260506115012 | 12 | 70 | 8.0 | 24.1 | 0.00 | 0.00 | 0.00 | 62 | 1014.5 |
| 20260506114506 | 12 | 27 | 8.0 | 19.3 | 0.00 | 0.00 | 0.00 | 62 | 1014.4 |
| 20260506114013 | 12 | 40 | 11.3 | 19.3 | 0.00 | 0.00 | 0.00 | 62 | 1014.5 |
| 20260506113013 | 12 | 49 | 8.0 | 19.3 | 0.00 | 0.00 | 0.00 | 62 | 1014.4 |
| 20260506112505 | 12 | 30 | 9.7 | 29.0 | 0.00 | 0.00 | 0.00 | 62 | 1014.4 |
| 20260506112013 | 12 | 65 | 4.8 | 16.1 | 0.00 | 0.00 | 0.00 | 61 | 1014.4 |
| 20260506111505 | 12 | 62 | 4.8 | 19.3 | 0.00 | 0.00 | 0.00 | 63 | 1014.5 |
| 20260506110506 | 12 | 31 | 6.4 | 16.1 | 0.00 | 0.00 | 0.00 | 62 | 1014.4 |
| 20260506110006 | 12 | 45 | 9.7 | 25.7 | 0.00 | 0.00 | 0.00 | 62 | 1014.4 |
| 20260506105505 | 12 | 34 | 9.7 | 19.3 | 0.00 | 0.00 | 0.00 | 61 | 1014.4 |
| 20260506105015 | 12 | 34 | 11.3 | 24.1 | 0.00 | 0.00 | 0.00 | 60 | 1014.5 |
| 20260506104012 | 12 | 15 | 8.0 | 16.1 | 0.00 | 0.00 | 0.00 | 61 | 1014.4 |
| 20260506103013 | 12 | 29 | 8.0 | 20.9 | 0.00 | 0.00 | 0.00 | 60 | 1014.5 |
| 20260506102506 | 12 | 40 | 8.0 | 19.3 | 0.00 | 0.00 | 0.00 | 61 | 1014.4 |
| 20260506102012 | 12 | 24 | 8.0 | 20.9 | 0.00 | 0.00 | 0.00 | 61 | 1014.6 |
| 20260506101506 | 12 | 37 | 11.3 | 20.9 | 0.00 | 0.00 | 0.00 | 60 | 1014.5 |
| 20260506101013 | 12 | 42 | 11.3 | 19.3 | 0.00 | 0.00 | 0.00 | 61 | 1014.5 |
| 20260506100505 | 12 | 78 | 8.0 | 19.3 | 0.00 | 0.00 | 0.00 | 60 | 1014.5 |
| 20260506100005 | 12 | 32 | 9.7 | 24.1 | 0.00 | 0.00 | 0.00 | 60 | 1014.6 |
| 20260506095506 | 12 | 20 | 8.0 | 16.1 | 0.00 | 0.00 | 0.00 | 61 | 1014.6 |
| 20260506095012 | 12 | 48 | 9.7 | 20.9 | 0.00 | 0.00 | 0.00 | 61 | 1014.6 |
| 20260506094505 | 12 | 75 | 3.2 | 14.5 | 0.00 | 0.00 | 0.00 | 60 | 1014.6 |
| 20260506094013 | 12 | 55 | 9.7 | 22.5 | 0.00 | 0.00 | 0.00 | 60 | 1014.7 |
| 20260506093506 | 12 | 42 | 9.7 | 19.3 | 0.00 | 0.00 | 0.00 | 60 | 1014.5 |
| 20260506092506 | 12 | 32 | 12.9 | 25.7 | 0.00 | 0.00 | 0.00 | 59 | 1014.5 |
| 20260506092013 | 12 | 35 | 8.0 | 25.7 | 0.00 | 0.00 | 0.00 | 61 | 1014.5 |
| 20260506091506 | 12 | 25 | 11.3 | 32.2 | 0.00 | 0.00 | 0.00 | 59 | 1014.4 |
| 20260506091013 | 12 | 55 | 4.8 | 19.3 | 0.00 | 0.00 | 0.00 | 62 | 1014.4 |
| 20260506090506 | 12 | 70 | 9.7 | 22.5 | 0.00 | 0.00 | 0.00 | 62 | 1014.3 |
| 20260506090006 | 12 | 73 | 8.0 | 20.9 | 0.00 | 0.00 | 0.00 | 63 | 1014.3 |
| 20260506085521 | 12 | 40 | 6.4 | 16.1 | 0.00 | 0.00 | 0.00 | 63 | 1014.3 |
| 20260506085013 | 12 | 66 | 8.0 | 20.9 | 0.00 | 0.00 | 0.00 | 62 | 1014.1 |
| 20260506084506 | 12 | 77 | 4.8 | 20.9 | 0.00 | 0.00 | 0.00 | 62 | 1014.3 |
| 20260506084012 | 12 | 65 | 11.3 | 22.5 | 0.00 | 0.00 | 0.00 | 61 | 1014.2 |
| 20260506083506 | 12 | 40 | 4.8 | 20.9 | 0.00 | 0.00 | 0.00 | 62 | 1014.1 |
| 20260506083013 | 12 | 55 | 8.0 | 19.3 | 0.00 | 0.00 | 0.00 | 64 | 1014.0 |
| 20260506081505 | 11 | 43 | 8.0 | 14.5 | 0.00 | 0.00 | 0.00 | 66 | 1014.1 |
| 20260506080506 | 11 | 44 | 4.8 | 25.7 | 0.00 | 0.00 | 0.00 | 68 | 1014.1 |
| 20260506073506 | 10 | 29 | 9.7 | 20.9 | 0.00 | 0.00 | 0.00 | 69 | 1014.1 |
| 20260506072506 | 10 | 51 | 9.7 | 19.3 | 0.00 | 0.00 | 0.00 | 70 | 1014.1 |
| 20260506071506 | 10 | 39 | 9.7 | 24.1 | 0.00 | 0.00 | 0.00 | 71 | 1014.1 |
| 20260506071013 | 10 | 40 | 6.4 | 19.3 | 0.00 | 0.00 | 0.00 | 72 | 1014.1 |
| 20260506070506 | 10 | 60 | 6.4 | 25.7 | 0.00 | 0.00 | 0.00 | 72 | 1013.9 |